Time,TemperatureF,DewpointF,PressureIn,WindDirection,WindDirectionDegrees,WindSpeedMPH,WindSpeedGustMPH,Humidity,HourlyPrecipIn,Conditions,Clouds,dailyrainin,SoftwareType,DateUTC
2013-01-06 16:43:00,40.0,21.0,-100.00,NW,305,2.0,9.0,46,-99.99,,,-99.99,,2013-01-06 21:43:00,
2013-01-06 16:53:00,39.0,20.0,-100.00,NW,305,1.0,3.0,46,-99.99,,,-99.99,,2013-01-06 21:53:00,
2013-01-06 17:02:00,39.0,20.0,-100.00,NW,305,1.0,3.0,46,-99.99,,,-99.99,,2013-01-06 22:02:00,
2013-01-06 17:12:00,39.0,21.0,-100.00,WSW,245,1.0,3.0,49,-99.99,,,-99.99,,2013-01-06 22:12:00,
2013-01-06 17:22:00,39.0,21.0,-100.00,WSW,245,1.0,3.0,49,-99.99,,,-99.99,,2013-01-06 22:22:00,
2013-01-06 17:33:00,36.0,22.0,-100.00,SSW,195,1.0,2.0,55,-99.99,,,-99.99,,2013-01-06 22:33:00,
2013-01-06 17:43:00,36.0,22.0,-100.00,NNW,335,1.0,5.0,55,-99.99,,,-99.99,,2013-01-06 22:43:00,
2013-01-06 17:52:00,36.0,22.0,-100.00,NNW,335,1.0,5.0,55,-99.99,,,-99.99,,2013-01-06 22:52:00,
2013-01-06 18:02:00,35.0,22.0,-100.00,NNW,330,2.0,2.0,58,-99.99,,,-99.99,,2013-01-06 23:02:00,
2013-01-06 18:13:00,34.0,22.0,-100.00,WNW,295,1.0,5.0,60,-99.99,,,-99.99,,2013-01-06 23:13:00,
2013-01-06 18:22:00,34.0,22.0,-100.00,NW,325,1.0,5.0,61,-99.99,,,-99.99,,2013-01-06 23:22:00,
2013-01-06 18:33:00,34.0,22.0,-100.00,NW,305,1.0,2.0,62,-99.99,,,-99.99,,2013-01-06 23:33:00,
2013-01-06 18:43:00,34.0,23.0,-100.00,WNW,290,0.0,2.0,62,-99.99,,,-99.99,,2013-01-06 23:43:00,
2013-01-06 18:53:00,34.0,22.0,-100.00,West,270,0.0,3.0,63,-99.99,,,-99.99,,2013-01-06 23:53:00,
2013-01-06 19:03:00,33.0,22.0,-100.00,WNW,295,1.0,3.0,64,-99.99,,,-99.99,,2013-01-07 00:03:00,
2013-01-06 19:12:00,34.0,23.0,-100.00,WNW,285,1.0,3.0,64,-99.99,,,-99.99,,2013-01-07 00:12:00,
2013-01-06 19:23:00,34.0,23.0,-100.00,WSW,245,2.0,5.0,64,-99.99,,,-99.99,,2013-01-07 00:23:00,
2013-01-06 20:32:00,35.0,23.0,-100.00,SW,220,2.0,3.0,62,-99.99,,,-99.99,,2013-01-07 01:32:00,
2013-01-06 21:32:00,33.0,23.0,-100.00,WNW,290,1.0,2.0,66,-99.99,,,-99.99,,2013-01-07 02:32:00,
2013-01-06 21:42:00,33.0,22.0,-100.00,WNW,285,1.0,2.0,65,-99.99,,,-99.99,,2013-01-07 02:42:00,
2013-01-06 21:53:00,33.0,23.0,-100.00,SSW,200,1.0,3.0,66,-99.99,,,-99.99,,2013-01-07 02:53:00,
2013-01-06 22:02:00,33.0,23.0,-100.00,WSW,250,1.0,2.0,67,-99.99,,,-99.99,,2013-01-07 03:02:00,
2013-01-06 22:12:00,33.0,23.0,-100.00,WSW,245,1.0,3.0,67,-99.99,,,-99.99,,2013-01-07 03:12:00,
2013-01-06 22:23:00,32.0,23.0,-100.00,South,185,1.0,2.0,67,-99.99,,,-99.99,,2013-01-07 03:23:00,
2013-01-06 22:33:00,32.0,23.0,-100.00,SW,235,0.0,2.0,69,-99.99,,,-99.99,,2013-01-07 03:33:00,
2013-01-06 22:43:00,32.0,24.0,-100.00,SW,230,2.0,6.0,70,-99.99,,,-99.99,,2013-01-07 03:43:00,
2013-01-06 22:52:00,33.0,24.0,-100.00,SW,230,1.0,7.0,68,-99.99,,,-99.99,,2013-01-07 03:52:00,
2013-01-06 23:00:00,33.0,23.0,-100.00,SW,225,5.0,7.0,67,-99.99,,,-99.99,,2013-01-07 04:00:00,
2013-01-06 23:02:00,33.0,24.0,-100.00,SSW,210,2.0,3.0,67,-99.99,,,-99.99,,2013-01-07 04:02:00,
2013-01-06 23:13:00,33.0,23.0,-100.00,South,185,3.0,5.0,67,-99.99,,,-99.99,,2013-01-07 04:13:00,
2013-01-06 23:22:00,33.0,24.0,-100.00,WSW,245,2.0,6.0,67,-99.99,,,-99.99,,2013-01-07 04:22:00,
2013-01-06 23:33:00,33.0,23.0,-100.00,SW,225,3.0,7.0,67,-99.99,,,-99.99,,2013-01-07 04:33:00,
2013-01-06 23:42:00,33.0,23.0,-100.00,SW,225,5.0,7.0,67,-99.99,,,-99.99,,2013-01-07 04:42:00,
2013-01-06 23:52:00,33.0,23.0,-100.00,SW,225,5.0,7.0,67,-99.99,,,-99.99,,2013-01-07 04:52:00,